Weather History for Martinsburg, WV

Change the Weather History Date:

Tuesday, October 16, 2012

  Actual Average Record
Temperature  
Mean Temperature 51 °F 54 °F  
Max Temperature 62 °F 65 °F 86 °F (1962)
Min Temperature 39 °F 42 °F 29 °F (1939)
Degree Days  
Heating Degree Days 14 12  
Month to date heating degree days 166 147  
Since 1 July heating degree days 243 238  
Cooling Degree Days 0 0  
Month to date cooling degree days 9 8  
Year to date cooling degree days 1144 893  
Growing Degree Days 2 (Base 50)    
Moisture  
Dew Point 38 °F    
Average Humidity 61    
Maximum Humidity 82    
Minimum Humidity 39    
Precipitation  
Precipitation 0.00 in 0.09 in 2.75 in (1942)
Month to date precipitation 1.05 1.60  
Year to date precipitation 27.01 31.41  
Sea Level Pressure  
Sea Level Pressure 29.90 in    
Wind  
Wind Speed 8 mph (WNW)    
Max Wind Speed 21 mph    
Max Gust Speed 25 mph    
Visibility 10 miles    
Events      
T = Trace of Precipitation, MM = Missing Value Source: NWS Daily Summary

Daily Weather History Graph

Daily Weather History Graph

Search for Another Location

Airport:

Trip Planner

Search our weather history database for the weather conditions in past years. The results will help you decide how hot, cold, wet, or windy it might be!

Date:

Astronomy

Oct. 16, 2012 Rise Set
Actual Time 7:23 AM EDT 6:30 PM EDT
Civil Twilight 6:56 AM EDT 6:57 PM EDT
Nautical Twilight 6:25 AM EDT 7:29 PM EDT
Astronomical Twilight 5:53 AM EDT 8:00 PM EDT
Moon 8:43 AM EDT (10/16) 7:14 PM EDT (10/16)
Length of Visible Light 12h 01m
Length of Day
11h 07m
New Moon, 2% of the Moon is Illuminated
Oct 16
New Moon
Oct 21
First Quarter
Oct 29
Full
Nov 6
Last Quarter
Nov 13
New

Hourly Weather History & Observations

Time (EDT) Temp. Windchill Dew Point Humidity Pressure Visibility Wind Dir Wind Speed Gust Speed Precip Events Conditions
12:53 AM 53.1 °F - 42.1 °F 66% 29.85 in 10.0 mi WNW 6.9 mph - N/A   Scattered Clouds
1:53 AM 52.0 °F - 39.9 °F 63% 29.85 in 10.0 mi WNW 8.1 mph - N/A   Partly Cloudy
2:53 AM 53.1 °F - 41.0 °F 64% 29.85 in 10.0 mi NW 10.4 mph - N/A   Overcast
3:53 AM 53.1 °F - 41.0 °F 64% 29.86 in 10.0 mi WNW 9.2 mph - N/A   Overcast
4:53 AM 54.0 °F - 39.0 °F 57% 29.87 in 10.0 mi NW 11.5 mph - N/A   Overcast
5:53 AM 54.0 °F - 39.0 °F 57% 29.88 in 10.0 mi WNW 11.5 mph - N/A   Overcast
6:53 AM 53.1 °F - 39.9 °F 61% 29.90 in 10.0 mi WNW 9.2 mph - N/A   Overcast
8:53 AM 54.0 °F - 39.0 °F 57% 29.93 in 10.0 mi WNW 5.8 mph - N/A   Mostly Cloudy
9:53 AM 55.9 °F - 37.9 °F 51% 29.94 in 10.0 mi WNW 11.5 mph - N/A   Overcast
10:53 AM 55.0 °F - 37.9 °F 53% 29.95 in 10.0 mi NW 17.3 mph 21.9 mph N/A   Overcast
11:53 AM 57.9 °F - 39.0 °F 49% 29.94 in 10.0 mi NW 15.0 mph - N/A   Overcast
12:53 PM 57.9 °F - 37.9 °F 47% 29.93 in 10.0 mi NW 10.4 mph - N/A   Clear
1:53 PM 60.1 °F - 37.9 °F 44% 29.91 in 10.0 mi WNW 11.5 mph 19.6 mph N/A   Clear
2:53 PM 62.1 °F - 37.9 °F 41% 29.89 in 10.0 mi Variable 6.9 mph - N/A   Clear
3:53 PM 62.1 °F - 37.0 °F 39% 29.88 in 10.0 mi WNW 12.7 mph - N/A   Clear
4:53 PM 61.0 °F - 36.0 °F 39% 29.87 in 10.0 mi West 9.2 mph - N/A   Clear
5:53 PM 60.1 °F - 36.0 °F 41% 29.88 in 10.0 mi WNW 6.9 mph - N/A   Clear
6:53 PM 54.0 °F - 37.0 °F 53% 29.90 in 10.0 mi Calm Calm - N/A   Clear
7:53 PM 48.0 °F - 39.0 °F 71% 29.91 in 10.0 mi Calm Calm - N/A   Clear
8:53 PM 45.0 °F 42.6 °F 37.9 °F 76% 29.93 in 10.0 mi West 4.6 mph - N/A   Clear
9:53 PM 44.1 °F - 37.9 °F 79% 29.93 in 10.0 mi Calm Calm - N/A   Clear
10:53 PM 43.0 °F - 37.9 °F 82% 29.93 in 10.0 mi Calm Calm - N/A   Clear
11:53 PM 42.1 °F - 37.0 °F 82% 29.94 in 10.0 mi Calm Calm - N/A   Clear